| time (UTC) | temp F | wind direction | speed MPH | gust MPH | rain 1hr in | rain 24hr in | rain mn in | humidity % | barometer mb |
| 20260508210035 | 72 | 142 | 1.0 | 5.0 | 0.00 | 0.00 | 0.00 | 43 | 1010.3 |
| 20260508204535 | 72 | 356 | 1.0 | 5.0 | 0.00 | 0.00 | 0.00 | 41 | 1010.3 |
| 20260508203031 | 72 | 231 | 0.0 | 8.0 | 0.00 | 0.00 | 0.00 | 42 | 1010.5 |
| 20260508201525 | 72 | 263 | 4.0 | 9.0 | 0.00 | 0.00 | 0.00 | 41 | 1011.0 |
| 20260508200024 | 72 | 169 | 0.0 | 9.0 | 0.00 | 0.00 | 0.00 | 41 | 1011.2 |
| 20260508194523 | 71 | 342 | 0.0 | 6.0 | 0.00 | 0.00 | 0.00 | 40 | 1011.4 |
| 20260508193019 | 71 | 269 | 0.0 | 3.0 | 0.00 | 0.00 | 0.00 | 40 | 1011.8 |
| 20260508191518 | 71 | 246 | 1.0 | 5.0 | 0.00 | 0.00 | 0.00 | 39 | 1011.9 |
| 20260508190018 | 71 | 133 | 2.0 | 14.0 | 0.00 | 0.00 | 0.00 | 40 | 1011.9 |
| 20260508184521 | 71 | 148 | 2.0 | 9.0 | 0.00 | 0.00 | 0.00 | 40 | 1011.7 |
| 20260508183013 | 70 | 173 | 0.0 | 8.0 | 0.00 | 0.00 | 0.00 | 42 | 1011.9 |
| 20260508181511 | 70 | 51 | 0.0 | 7.0 | 0.00 | 0.00 | 0.00 | 41 | 1012.2 |
| 20260508180009 | 70 | 13 | 0.0 | 6.0 | 0.00 | 0.00 | 0.00 | 42 | 1012.6 |
| 20260508174506 | 70 | 98 | 0.0 | 13.0 | 0.00 | 0.00 | 0.00 | 43 | 1012.8 |
| 20260508173004 | 70 | 103 | 2.0 | 7.0 | 0.00 | 0.00 | 0.00 | 41 | 1013.1 |
| 20260508171502 | 70 | 246 | 1.0 | 8.0 | 0.00 | 0.00 | 0.00 | 43 | 1013.5 |
| 20260508170101 | 69 | 266 | 1.0 | 7.0 | 0.00 | 0.00 | 0.00 | 43 | 1013.7 |
| 20260508164556 | 70 | 135 | 0.0 | 3.0 | 0.00 | 0.00 | 0.00 | 46 | 1014.1 |
| 20260508163105 | 69 | 137 | 0.0 | 6.0 | 0.00 | 0.00 | 0.00 | 46 | 1014.3 |
| 20260508161557 | 69 | 135 | 2.0 | 7.0 | 0.00 | 0.00 | 0.00 | 47 | 1014.5 |
| 20260508160048 | 68 | 224 | 1.0 | 6.0 | 0.00 | 0.00 | 0.00 | 46 | 1014.8 |
| 20260508154545 | 67 | 129 | 0.0 | 6.0 | 0.00 | 0.00 | 0.00 | 46 | 1015.0 |
| 20260508153054 | 66 | 117 | 2.0 | 7.0 | 0.00 | 0.00 | 0.00 | 48 | 1015.3 |
| 20260508151538 | 65 | 15 | 0.0 | 5.0 | 0.00 | 0.00 | 0.00 | 52 | 1015.5 |
| 20260508150035 | 63 | 117 | 0.0 | 2.0 | 0.00 | 0.00 | 0.00 | 53 | 1015.6 |
| 20260508144531 | 62 | 131 | 0.0 | 5.0 | 0.00 | 0.00 | 0.00 | 56 | 1015.8 |
| 20260508143036 | 60 | 204 | 0.0 | 3.0 | 0.00 | 0.00 | 0.00 | 61 | 1015.8 |
| 20260508141524 | 58 | 106 | 0.0 | 3.0 | 0.00 | 0.00 | 0.00 | 65 | 1015.8 |
| 20260508140017 | 57 | 258 | 0.0 | 2.0 | 0.00 | 0.00 | 0.00 | 66 | 1015.9 |
| 20260508134515 | 55 | 117 | 0.0 | 4.0 | 0.00 | 0.00 | 0.00 | 70 | 1016.0 |
| 20260508133008 | 52 | 141 | 0.0 | 3.0 | 0.00 | 0.00 | 0.00 | 78 | 1015.9 |
| 20260508131505 | 50 | 129 | 0.0 | 1.0 | 0.00 | 0.00 | 0.00 | 88 | 1015.9 |
| 20260508130059 | 48 | 113 | 0.0 | 0.0 | 0.00 | 0.00 | 0.00 | 92 | 1015.8 |
| 20260508124555 | 45 | 113 | 0.0 | 1.0 | 0.00 | 0.00 | 0.00 | 93 | 1015.8 |
| 20260508123052 | 43 | 116 | 0.0 | 1.0 | 0.00 | 0.00 | 0.00 | 93 | 1015.8 |
| 20260508121550 | 42 | 115 | 0.0 | 0.0 | 0.00 | 0.00 | 0.00 | 93 | 1015.8 |
| 20260508120058 | 40 | 116 | 0.0 | 0.0 | 0.00 | 0.00 | 0.00 | 93 | 1015.7 |
| 20260508114553 | 39 | 116 | 0.0 | 0.0 | 0.00 | 0.00 | 0.00 | 93 | 1015.5 |
| 20260508113049 | 39 | 115 | 0.0 | 0.0 | 0.00 | 0.00 | 0.00 | 93 | 1015.4 |
| 20260508111547 | 38 | 115 | 0.0 | 0.0 | 0.00 | 0.00 | 0.00 | 93 | 1015.4 |
| 20260508110048 | 38 | 115 | 0.0 | 0.0 | 0.00 | 0.00 | 0.00 | 93 | 1015.2 |
| 20260508104545 | 38 | 116 | 0.0 | 0.0 | 0.00 | 0.00 | 0.00 | 93 | 1015.2 |
| 20260508103048 | 39 | 115 | 0.0 | 0.0 | 0.00 | 0.00 | 0.00 | 93 | 1015.2 |
| 20260508101544 | 39 | 116 | 0.0 | 0.0 | 0.00 | 0.00 | 0.00 | 93 | 1015.1 |
| 20260508100059 | 39 | 115 | 0.0 | 0.0 | 0.00 | 0.00 | 0.00 | 93 | 1015.2 |
| 20260508094544 | 39 | 115 | 0.0 | 0.0 | 0.00 | 0.00 | 0.00 | 93 | 1015.2 |
| 20260508093042 | 39 | 115 | 0.0 | 0.0 | 0.00 | 0.00 | 0.00 | 93 | 1015.3 |
| 20260508091602 | 39 | 115 | 0.0 | 0.0 | 0.00 | 0.00 | 0.00 | 93 | 1015.3 |
| 20260508090043 | 39 | 116 | 0.0 | 0.0 | 0.00 | 0.00 | 0.00 | 93 | 1015.2 |
| 20260508084539 | 39 | 115 | 0.0 | 0.0 | 0.00 | 0.00 | 0.00 | 93 | 1015.0 |
| 20260508083037 | 39 | 116 | 0.0 | 0.0 | 0.00 | 0.00 | 0.00 | 92 | 1015.1 |
| 20260508081553 | 39 | 115 | 0.0 | 0.0 | 0.00 | 0.00 | 0.00 | 92 | 1015.1 |
| 20260508080035 | 39 | 116 | 0.0 | 0.0 | 0.00 | 0.00 | 0.00 | 92 | 1015.1 |
| 20260508074536 | 39 | 115 | 0.0 | 0.0 | 0.00 | 0.00 | 0.00 | 92 | 1015.0 |
| 20260508073043 | 40 | 116 | 0.0 | 0.0 | 0.00 | 0.00 | 0.00 | 92 | 1015.0 |
| 20260508071536 | 40 | 116 | 0.0 | 0.0 | 0.00 | 0.00 | 0.00 | 92 | 1015.1 |
| 20260508070028 | 40 | 115 | 0.0 | 0.0 | 0.00 | 0.00 | 0.00 | 92 | 1015.2 |
| 20260508064530 | 40 | 116 | 0.0 | 0.0 | 0.00 | 0.00 | 0.00 | 92 | 1015.3 |
| 20260508063023 | 41 | 116 | 0.0 | 0.0 | 0.00 | 0.00 | 0.00 | 92 | 1015.4 |
| 20260508061522 | 41 | 116 | 0.0 | 0.0 | 0.00 | 0.00 | 0.00 | 92 | 1015.6 |
| 20260508060026 | 41 | 115 | 0.0 | 0.0 | 0.00 | 0.00 | 0.00 | 91 | 1015.6 |
| 20260508054549 | 41 | 116 | 0.0 | 0.0 | 0.00 | 0.00 | 0.00 | 91 | 1015.7 |
| 20260508053017 | 42 | 115 | 0.0 | 0.0 | 0.00 | 0.00 | 0.00 | 91 | 1015.9 |
| 20260508051514 | 42 | 116 | 0.0 | 0.0 | 0.00 | 0.00 | 0.00 | 91 | 1016.0 |
| 20260508050012 | 42 | 115 | 0.0 | 0.0 | 0.00 | 0.00 | 0.00 | 90 | 1015.8 |
| 20260508044511 | 42 | 116 | 0.0 | 0.0 | 0.00 | 0.00 | 0.00 | 90 | 1015.8 |
| 20260508043009 | 43 | 115 | 0.0 | 0.0 | 0.00 | 0.00 | 0.00 | 90 | 1015.7 |
| 20260508041512 | 43 | 116 | 0.0 | 0.0 | 0.00 | 0.00 | 0.00 | 90 | 1015.8 |
| 20260508040005 | 43 | 115 | 0.0 | 0.0 | 0.00 | 0.00 | 0.00 | 89 | 1015.8 |
| 20260508034505 | 44 | 359 | 0.0 | 0.0 | 0.00 | 0.00 | 0.00 | 89 | 1015.7 |
| 20260508033008 | 44 | 359 | 0.0 | 0.0 | 0.00 | 0.00 | 0.00 | 88 | 1015.7 |
| 20260508031505 | 44 | 359 | 0.0 | 0.0 | 0.00 | 0.00 | 0.00 | 87 | 1015.8 |
| 20260508030004 | 45 | 359 | 0.0 | 0.0 | 0.00 | 0.00 | 0.00 | 86 | 1015.7 |
| 20260508024502 | 45 | 359 | 0.0 | 0.0 | 0.00 | 0.00 | 0.00 | 85 | 1015.6 |
| 20260508023002 | 46 | 358 | 0.0 | 0.0 | 0.00 | 0.00 | 0.00 | 83 | 1015.5 |
| 20260508021502 | 46 | 358 | 0.0 | 0.0 | 0.00 | 0.00 | 0.00 | 81 | 1015.4 |
| 20260508020002 | 47 | 359 | 0.0 | 0.0 | 0.00 | 0.00 | 0.00 | 80 | 1015.2 |
| 20260508014502 | 48 | 359 | 0.0 | 0.0 | 0.00 | 0.00 | 0.00 | 77 | 1015.1 |
| 20260508013104 | 49 | 358 | 0.0 | 0.0 | 0.00 | 0.00 | 0.00 | 75 | 1014.9 |
| 20260508011615 | 50 | 358 | 0.0 | 0.0 | 0.00 | 0.00 | 0.00 | 73 | 1014.7 |
| 20260508004559 | 52 | 359 | 0.0 | 0.0 | 0.00 | 0.00 | 0.00 | 68 | 1014.5 |
| 20260508003058 | 54 | 359 | 0.0 | 0.0 | 0.00 | 0.00 | 0.00 | 65 | 1014.4 |
| 20260508001601 | 55 | 359 | 0.0 | 0.0 | 0.00 | 0.00 | 0.00 | 64 | 1014.3 |
| 20260508000056 | 57 | 358 | 0.0 | 0.0 | 0.00 | 0.00 | 0.00 | 60 | 1014.2 |
| 20260507234559 | 58 | 359 | 0.0 | 0.0 | 0.00 | 0.00 | 0.00 | 56 | 1014.1 |
| 20260507233158 | 59 | 359 | 0.0 | 0.0 | 0.00 | 0.00 | 0.00 | 55 | 1014.2 |
| 20260507231504 | 60 | 359 | 0.0 | 1.0 | 0.00 | 0.00 | 0.00 | 48 | 1014.2 |
| 20260507230004 | 61 | 297 | 0.0 | 1.0 | 0.00 | 0.00 | 0.00 | 48 | 1014.3 |
| 20260507224510 | 61 | 65 | 0.0 | 2.0 | 0.00 | 0.00 | 0.00 | 42 | 1014.4 |
| 20260507223002 | 62 | 27 | 0.0 | 1.0 | 0.00 | 0.00 | 0.00 | 40 | 1014.4 |
| 20260507221502 | 62 | 47 | 0.0 | 2.0 | 0.00 | 0.00 | 0.00 | 40 | 1014.3 |
| 20260507220004 | 62 | 36 | 0.0 | 2.0 | 0.00 | 0.00 | 0.00 | 41 | 1014.4 |
| 20260507214501 | 62 | 15 | 0.0 | 2.0 | 0.00 | 0.00 | 0.00 | 41 | 1014.3 |
| 20260507213100 | 61 | 317 | 0.0 | 2.0 | 0.00 | 0.00 | 0.00 | 43 | 1014.4 |
| 20260507211602 | 62 | 287 | 0.0 | 2.0 | 0.00 | 0.00 | 0.00 | 39 | 1014.3 |